Location: Cicognara
(44.9500°N, 10.4667°E)
Time: 14:53:51
(UTC+00:00)

SL-16 R/B - Pass Details

Date: 20 June 2021
Orbit: 985 x 1007 km, 99.5° (Epoch: 02 August)

Event Time Altitude Azimuth Distance (km) Brightness Sun altitude
Exits shadow 23:46:01 - 122° (ESE) 3,034 4.8 -21.4°
Reaches altitude 10° 23:46:51 10° 118° (ESE) 2,755 4.6 -21.3°
Maximum altitude 23:52:04 29° 61° (ENE) 1,718 4.1 -21.2°
Drops below altitude 10° 23:57:16 10° 4° (N) 2,758 6.0 -21.1°
Sets 00:00:01 0° 354° (N) 3,708 6.9 -21.0°
